PSEOF SBPV-SBRB

Flight info

Callsign PSEOF
Flight time 0h 42m
Altitude 36000
Route OSATU UZ74 BIGOD
Aircraft C750/M-SBDE3FGHRWXY/S

Departure

Time 2026-05-08 02:18
Airport Governador Jorge Teixeira de Oliveira International Airport (SBPV)

Arrival

Time 2026-05-08 03:00
Airport Rio Branco-Plácido de Castro International Airport (SBRB)
Time Latitude Longitude Altitude Speed Heading
2026-05-08 02:07 -8.71358 -63.89991 297 ft 0 kts 90°
2026-05-08 02:16 -8.71358 -63.89990 295 ft 0 kts 97°
2026-05-08 02:16 -8.71366 -63.89991 295 ft 3 kts 197°
2026-05-08 02:16 -8.71413 -63.90038 295 ft 17 kts 212°
2026-05-08 02:17 -8.71577 -63.90048 297 ft 26 kts 178°
2026-05-08 02:17 -8.71765 -63.90036 297 ft 27 kts 176°
2026-05-08 02:17 -8.71928 -63.90080 295 ft 24 kts 222°
2026-05-08 02:17 -8.71928 -63.90171 295 ft 19 kts 348°
2026-05-08 02:18 -8.71509 -63.90198 295 ft 117 kts 356°
2026-05-08 02:18 -8.70538 -63.90245 792 ft 139 kts 359°
2026-05-08 02:18 -8.69655 -63.90361 1691 ft 132 kts 339°
2026-05-08 02:18 -8.68823 -63.90925 2089 ft 159 kts 318°
2026-05-08 02:19 -8.68186 -63.91933 2540 ft 183 kts 293°
2026-05-08 02:19 -8.68082 -63.93322 2940 ft 220 kts 261°
2026-05-08 02:19 -8.68871 -63.94733 3387 ft 255 kts 224°
2026-05-08 02:19 -8.70523 -63.95579 3989 ft 276 kts 198°
2026-05-08 02:20 -8.72363 -63.96110 5028 ft 277 kts 202°
2026-05-08 02:20 -8.73846 -63.97338 5895 ft 279 kts 235°
2026-05-08 02:20 -8.74643 -63.99108 6862 ft 278 kts 253°
2026-05-08 02:20 -8.75181 -64.00997 7842 ft 281 kts 256°
2026-05-08 02:21 -8.75704 -64.02919 8888 ft 286 kts 255°
2026-05-08 02:21 -8.76258 -64.04866 9869 ft 291 kts 255°
2026-05-08 02:21 -8.76836 -64.06870 10473 ft 307 kts 255°
2026-05-08 02:21 -8.77452 -64.09034 10687 ft 335 kts 255°
2026-05-08 02:22 -8.78118 -64.11385 10848 ft 359 kts 255°
2026-05-08 02:22 -8.78813 -64.13822 11630 ft 361 kts 254°
2026-05-08 02:22 -8.79511 -64.16273 12359 ft 365 kts 254°
2026-05-08 02:22 -8.80217 -64.18757 13071 ft 370 kts 254°
2026-05-08 02:23 -8.80933 -64.21274 13769 ft 375 kts 254°
2026-05-08 02:23 -8.81659 -64.23827 14347 ft 380 kts 254°
2026-05-08 02:23 -8.82393 -64.26411 14945 ft 385 kts 254°
2026-05-08 02:23 -8.83139 -64.29036 15517 ft 391 kts 254°
2026-05-08 02:24 -8.83894 -64.31693 16113 ft 396 kts 253°
2026-05-08 02:24 -8.84660 -64.34389 16720 ft 402 kts 253°
2026-05-08 02:24 -8.85436 -64.37125 17349 ft 407 kts 253°
2026-05-08 02:24 -8.86222 -64.39893 18002 ft 413 kts 253°
2026-05-08 02:25 -8.87020 -64.42707 18596 ft 418 kts 253°
2026-05-08 02:25 -8.87826 -64.45548 19217 ft 422 kts 253°
2026-05-08 02:25 -8.88640 -64.48415 19840 ft 427 kts 253°
2026-05-08 02:25 -8.89463 -64.51313 20476 ft 431 kts 253°
2026-05-08 02:26 -8.90291 -64.54241 21135 ft 435 kts 253°
2026-05-08 02:26 -8.91130 -64.57206 21752 ft 440 kts 253°
2026-05-08 02:26 -8.91976 -64.60194 22385 ft 445 kts 254°
2026-05-08 02:26 -8.92833 -64.63218 23005 ft 450 kts 254°
2026-05-08 02:27 -8.93685 -64.66230 23598 ft 454 kts 254°
2026-05-08 02:27 -8.94557 -64.69312 24182 ft 456 kts 254°
2026-05-08 02:27 -8.95430 -64.72401 24806 ft 458 kts 254°
2026-05-08 02:27 -8.96308 -64.75500 25414 ft 460 kts 254°
2026-05-08 02:28 -8.97221 -64.78605 26022 ft 462 kts 253°
2026-05-08 02:28 -8.98160 -64.81715 26628 ft 463 kts 253°
2026-05-08 02:28 -8.99087 -64.84849 27234 ft 466 kts 253°
2026-05-08 02:28 -9.00001 -64.88000 27830 ft 468 kts 253°
2026-05-08 02:29 -9.00926 -64.91162 28417 ft 470 kts 253°
2026-05-08 02:29 -9.01868 -64.94339 28977 ft 473 kts 253°
2026-05-08 02:29 -9.02811 -64.97532 29576 ft 474 kts 253°
2026-05-08 02:29 -9.03748 -65.00738 30110 ft 476 kts 253°
2026-05-08 02:30 -9.04691 -65.03957 30551 ft 478 kts 253°
2026-05-08 02:30 -9.05643 -65.07189 31040 ft 479 kts 253°
2026-05-08 02:30 -9.06588 -65.10402 31741 ft 474 kts 253°
2026-05-08 02:30 -9.07523 -65.13594 32421 ft 470 kts 253°
2026-05-08 02:31 -9.08451 -65.16761 33082 ft 467 kts 253°
2026-05-08 02:31 -9.09375 -65.19907 33755 ft 464 kts 253°
2026-05-08 02:31 -9.10290 -65.23028 34361 ft 461 kts 253°
2026-05-08 02:31 -9.11197 -65.26128 34940 ft 458 kts 253°
2026-05-08 02:32 -9.12099 -65.29205 35525 ft 453 kts 253°
2026-05-08 02:32 -9.12981 -65.32214 35901 ft 455 kts 253°
2026-05-08 02:32 -9.13891 -65.35322 35901 ft 467 kts 253°
2026-05-08 02:32 -9.14823 -65.38510 35899 ft 478 kts 253°
2026-05-08 02:33 -9.16750 -65.45098 35916 ft 498 kts 253°
2026-05-08 02:33 -9.18750 -65.51938 35923 ft 514 kts 253°
2026-05-08 02:34 -9.20785 -65.58908 35909 ft 518 kts 253°
2026-05-08 02:34 -9.22829 -65.65911 35907 ft 519 kts 253°
2026-05-08 02:35 -9.24872 -65.72918 35917 ft 519 kts 253°
2026-05-08 02:35 -9.26914 -65.79927 35913 ft 519 kts 253°
2026-05-08 02:36 -9.28954 -65.86933 35912 ft 519 kts 253°
2026-05-08 02:36 -9.30980 -65.93899 35908 ft 519 kts 253°
2026-05-08 02:37 -9.33018 -66.00907 35910 ft 518 kts 253°
2026-05-08 02:37 -9.35051 -66.07909 35913 ft 518 kts 254°
2026-05-08 02:38 -9.37085 -66.14917 35907 ft 518 kts 254°
2026-05-08 02:38 -9.39114 -66.21912 35904 ft 518 kts 254°
2026-05-08 02:39 -9.41143 -66.28913 35904 ft 518 kts 253°
2026-05-08 02:39 -9.43168 -66.35910 35903 ft 518 kts 253°
2026-05-08 02:40 -9.45194 -66.42910 35901 ft 518 kts 253°
2026-05-08 02:40 -9.47213 -66.49895 35763 ft 508 kts 253°
2026-05-08 02:41 -9.48186 -66.53263 35077 ft 487 kts 253°
2026-05-08 02:41 -9.49118 -66.56491 34445 ft 468 kts 253°
2026-05-08 02:41 -9.50017 -66.59608 33834 ft 456 kts 253°
2026-05-08 02:41 -9.50901 -66.62674 33213 ft 452 kts 253°
2026-05-08 02:42 -9.51785 -66.65751 32616 ft 458 kts 253°
2026-05-08 02:42 -9.52685 -66.68873 32011 ft 464 kts 253°
2026-05-08 02:42 -9.53596 -66.72022 31405 ft 468 kts 253°
2026-05-08 02:42 -9.54511 -66.75194 30778 ft 471 kts 254°
2026-05-08 02:43 -9.55431 -66.78394 30155 ft 473 kts 254°
2026-05-08 02:43 -9.56346 -66.81571 29492 ft 468 kts 254°
2026-05-08 02:43 -9.57255 -66.84727 28876 ft 465 kts 254°
2026-05-08 02:43 -9.58159 -66.87870 28265 ft 464 kts 254°
2026-05-08 02:44 -9.59060 -66.91003 27653 ft 461 kts 254°
2026-05-08 02:44 -9.59943 -66.94074 27058 ft 459 kts 254°
2026-05-08 02:44 -9.60834 -66.97174 26456 ft 458 kts 254°
2026-05-08 02:44 -9.61723 -67.00269 25864 ft 456 kts 254°
2026-05-08 02:45 -9.62607 -67.03345 25264 ft 454 kts 254°
2026-05-08 02:45 -9.63488 -67.06413 24663 ft 453 kts 254°
2026-05-08 02:45 -9.64366 -67.09474 24072 ft 451 kts 254°
2026-05-08 02:45 -9.65242 -67.12527 23474 ft 450 kts 254°
2026-05-08 02:46 -9.66113 -67.15562 22835 ft 445 kts 254°
2026-05-08 02:46 -9.66971 -67.18555 22254 ft 441 kts 253°
2026-05-08 02:46 -9.67868 -67.21508 21652 ft 436 kts 250°
2026-05-08 02:46 -9.69126 -67.24280 21099 ft 431 kts 243°
2026-05-08 02:47 -9.70464 -67.26986 20536 ft 427 kts 243°
2026-05-08 02:47 -9.71776 -67.29676 19974 ft 423 kts 243°
2026-05-08 02:47 -9.73036 -67.32357 19417 ft 419 kts 244°
2026-05-08 02:47 -9.74286 -67.35006 18868 ft 415 kts 243°
2026-05-08 02:48 -9.75546 -67.37617 18324 ft 410 kts 243°
2026-05-08 02:48 -9.76796 -67.40210 17744 ft 406 kts 243°
2026-05-08 02:48 -9.78016 -67.42774 17209 ft 402 kts 243°
2026-05-08 02:48 -9.79224 -67.45314 16684 ft 397 kts 243°
2026-05-08 02:49 -9.80425 -67.47822 16158 ft 394 kts 243°
2026-05-08 02:49 -9.81615 -67.50307 15642 ft 390 kts 243°
2026-05-08 02:49 -9.82792 -67.52775 15126 ft 387 kts 244°
2026-05-08 02:49 -9.83957 -67.55217 14624 ft 383 kts 244°
2026-05-08 02:50 -9.85114 -67.57640 14121 ft 380 kts 244°
2026-05-08 02:50 -9.86260 -67.60041 13606 ft 376 kts 244°
2026-05-08 02:50 -9.87393 -67.62417 13097 ft 373 kts 244°
2026-05-08 02:50 -9.88517 -67.64774 12607 ft 370 kts 244°
2026-05-08 02:51 -9.89632 -67.67110 12122 ft 367 kts 245°
2026-05-08 02:51 -9.90738 -67.69429 11642 ft 364 kts 245°
2026-05-08 02:51 -9.91831 -67.71723 11170 ft 354 kts 245°
2026-05-08 02:51 -9.92869 -67.73897 10712 ft 331 kts 245°
2026-05-08 02:52 -9.93843 -67.75938 10281 ft 312 kts 245°
2026-05-08 02:52 -9.94763 -67.77874 9893 ft 299 kts 246°
2026-05-08 02:52 -9.95657 -67.79751 9515 ft 292 kts 246°
2026-05-08 02:52 -9.96538 -67.81601 9153 ft 291 kts 246°
2026-05-08 02:53 -9.97416 -67.83445 8778 ft 290 kts 246°
2026-05-08 02:53 -9.98289 -67.85280 8399 ft 288 kts 246°
2026-05-08 02:53 -9.99147 -67.87081 8029 ft 286 kts 246°
2026-05-08 02:53 -10.00010 -67.88895 7666 ft 285 kts 246°
2026-05-08 02:54 -10.00867 -67.90695 7289 ft 283 kts 247°
2026-05-08 02:54 -10.01442 -67.91905 7040 ft 281 kts 247°
2026-05-08 02:54 -10.02566 -67.94266 6557 ft 279 kts 247°
2026-05-08 02:54 -10.03406 -67.96033 6188 ft 278 kts 247°
2026-05-08 02:55 -10.04168 -67.97817 5790 ft 273 kts 256°
2026-05-08 02:55 -10.03599 -68.01424 5085 ft 261 kts 304°
2026-05-08 02:55 -10.02354 -68.02729 4745 ft 257 kts 326°
2026-05-08 02:56 -10.00722 -68.03432 4403 ft 255 kts 347°
2026-05-08 02:56 -9.98957 -68.03441 4077 ft 256 kts
2026-05-08 02:56 -9.97306 -68.02761 3725 ft 259 kts 30°
2026-05-08 02:56 -9.96004 -68.01484 3319 ft 264 kts 51°
2026-05-08 02:57 -9.95257 -67.99804 2895 ft 263 kts 72°
2026-05-08 02:57 -9.94837 -67.98060 2733 ft 234 kts 63°
2026-05-08 02:57 -9.94072 -67.96880 2512 ft 178 kts 41°
2026-05-08 02:57 -9.93243 -67.96099 2437 ft 157 kts 37°
2026-05-08 02:58 -9.92440 -67.95355 2272 ft 154 kts 36°
2026-05-08 02:58 -9.91662 -67.94701 2062 ft 139 kts 32°
2026-05-08 02:58 -9.91178 -67.94294 1955 ft 135 kts 34°
2026-05-08 02:58 -9.90502 -67.93657 1811 ft 130 kts 35°
2026-05-08 02:59 -9.89828 -67.93026 1649 ft 133 kts 36°
2026-05-08 02:59 -9.89112 -67.92387 1432 ft 138 kts 39°
2026-05-08 02:59 -9.88223 -67.91408 1146 ft 146 kts 51°
2026-05-08 02:59 -9.87830 -67.90858 934 ft 145 kts 56°
2026-05-08 03:00 -9.87296 -67.90005 634 ft 138 kts 56°
2026-05-08 03:00 -9.86881 -67.89359 629 ft 56 kts 57°
2026-05-08 03:00 -9.86766 -67.89297 630 ft 17 kts 285°
2026-05-08 03:00 -9.86741 -67.89408 632 ft 15 kts 283°
2026-05-08 03:01 -9.86722 -67.89511 635 ft 14 kts 280°
2026-05-08 03:01 -9.86718 -67.89600 634 ft 12 kts 236°
2026-05-08 03:01 -9.86747 -67.89658 635 ft 3 kts 303°
2026-05-08 03:01 -9.86707 -67.89681 633 ft 7 kts 327°
2026-05-08 03:02 -9.86702 -67.89684 633 ft 0 kts 328°